EHI
0 0 0 0 0 0 0 0 0 0 0 0 0 0 0 0 0 0 0 1 3 8 14 17 15 15 18 22 21 18 13 8 5 4 5 5 3 1 1 1 1 0 0 0 0 0 0 0 0
0 0 0 0 0 0 0 0 0 0 0 0 0 0 0 0 0 0 0 1 5 9 14 17 18 18 19 18 16 15 12 8 5 3 3 2 2 0 0 1 1 1 0 0 0 0 0 0 0
0 0 0 0 0 0 0 0 0 0 0 0 0 0 0 0 0 0 0 3 7 11 13 17 21 21 18 13 10 10 9 6 5 3 1 0 0 0 0 1 1 1 0 0 0 0 0 0 0
0 0 0 0 0 0 0 0 0 0 0 0 0 0 0 0 0 0 1 5 9 12 14 17 21 20 17 12 8 6 6 5 4 4 2 0 0 0 0 0 1 1 1 0 0 0 0 0 0
0 0 0 0 0 0 0 0 0 0 0 0 0 0 0 0 0 1 3 6 10 13 14 17 19 19 16 12 8 6 6 5 4 3 2 0 0 0 0 0 1 2 1 0 0 0 0 0 0
0 0 0 0 0 0 0 0 0 0 0 0 0 0 0 0 1 2 5 6 9 11 13 14 16 15 14 11 8 6 6 5 4 2 1 0 0 0 0 0 1 1 1 1 0 0 0 0 0
0 0 0 0 0 0 0 0 0 0 0 0 0 0 0 0 1 3 5 6 7 10 11 11 11 9 9 8 7 5 5 5 4 2 1 0 1 0 0 0 1 1 1 1 0 0 0 0 0
0 0 0 0 0 0 0 0 0 0 0 0 0 0 0 0 1 3 5 5 7 9 9 9 7 6 5 5 4 4 4 3 3 3 1 0 0 0 0 1 2 2 1 0 0 0 0 0 0
0 0 0 0 0 0 0 0 0 0 0 0 0 0 0 0 1 3 5 6 7 8 8 7 7 6 5 3 2 3 3 3 3 3 1 0 0 0 0 1 2 2 1 0 0 0 0 0 0
0 0 0 0 0 0 0 0 0 0 0 0 0 0 0 1 2 3 4 6 8 8 6 6 6 6 5 3 2 3 4 3 4 3 2 0 0 0 0 1 2 2 1 0 0 0 0 0 0
0 0 0 0 0 0 0 0 0 0 0 0 0 0 0 1 2 3 3 5 8 8 6 5 6 6 5 4 4 5 5 4 3 3 2 1 1 0 0 0 1 1 0 0 0 0 0 0 0
0 0 0 0 0 0 0 0 0 0 0 0 0 0 0 0 1 3 3 4 7 8 7 5 5 6 4 4 5 6 6 5 3 2 2 2 2 1 0 0 0 0 0 0 0 0 0 0 0
0 0 0 0 0 0 0 0 0 0 0 0 0 0 0 0 1 2 3 4 5 7 7 5 4 5 4 4 6 6 5 4 3 1 1 3 3 1 0 0 0 0 0 0 0 0 0 0 0
0 0 0 0 0 0 0 0 0 0 0 0 0 0 0 0 0 1 2 3 4 6 7 5 4 4 3 4 5 5 3 3 3 1 1 2 3 2 1 0 0 0 0 0 0 0 0 0 0
0 0 0 0 0 0 0 0 0 0 0 0 0 0 0 0 0 0 1 3 4 5 6 5 4 3 3 3 4 4 3 2 2 1 0 1 2 2 1 0 0 0 0 0 0 0 0 0 0
0 0 0 0 0 0 0 0 0 0 0 0 0 0 0 0 0 0 1 2 3 4 4 4 4 4 3 3 3 3 2 2 1 0 0 0 1 1 1 0 0 0 0 0 0 0 0 0 0
0 0 0 0 0 0 0 0 0 0 0 0 0 0 0 0 0 0 0 1 3 3 3 3 4 3 3 3 3 2 1 1 1 0 0 0 0 0 0 0 0 0 0 0 0 0 0 0 0
0 0 0 0 0 0 0 0 0 0 0 0 0 0 0 0 0 0 0 1 2 3 3 3 3 3 3 3 3 2 1 0 0 0 0 0 0 0 0 0 0 0 0 0 0 0 0 0 0
0 0 0 0 0 0 0 0 0 0 0 0 0 0 0 0 0 0 0 0 1 1 2 3 3 3 3 3 2 1 0 0 0 0 0 0 0 0 0 0 0 0 0 0 0 0 0 0 0
0 0 0 0 0 0 0 0 0 0 0 0 0 0 0 0 0 0 0 0 0 0 1 1 3 3 3 2 1 0 0 0 0 0 0 0 0 0 0 0 0 0 0 0 0 0 0 0 0
0 0 0 0 0 0 0 0 0 0 0 0 0 0 0 0 0 0 0 0 0 0 0 1 2 3 2 1 0 0 0 0 0 0 0 0 0 0 0 0 0 0 0 0 0 0 0 0 0
0 0 0 0 0 0 0 0 0 0 0 0 0 0 0 0 0 0 0 0 0 0 0 1 2 2 1 0 0 0 0 0 0 0 0 0 0 0 0 0 0 0 0 0 0 0 0 0 0
0 0 0 0 0 0 0 0 0 0 0 0 0 0 0 0 0 0 0 0 0 0 0 0 2 2 1 0 0 0 0 0 0 0 0 0 0 0 0 0 0 0 0 0 0 0 0 0 0
0 0 0 0 0 0 0 0 0 0 0 0 0 0 0 0 0 0 0 0 0 0 0 0 1 2 1 0 0 0 0 0 0 0 0 0 0 0 0 0 0 0 0 0 0 0 0 0 0
0 0 0 0 0 0 0 0 0 0 0 0 0 0 0 0 0 0 0 0 0 0 0 0 1 1 0 0 0 0 0 0 0 0 0 0 0 0 0 0 0 0 0 0 0 0 0 0 0
0 0 0 0 0 0 0 0 0 0 0 0 0 0 0 0 0 0 0 0 0 0 0 0 0 0 0 0 0 0 0 0 0 0 0 0 0 0 0 0 0 0 0 0 0 0 0 0 0
0 0 0 0 0 0 0 0 0 0 0 0 0 0 0 0 0 0 0 0 0 0 0 0 0 0 0 0 0 0 0 0 0 0 0 0 0 0 0 0 0 0 0 0 0 0 0 0 0
0 0 0 0 0 0 0 0 0 0 0 0 0 0 0 0 0 0 0 0 0 0 0 0 0 0 0 0 0 0 0 0 0 0 0 0 0 0 0 0 0 0 0 0 0 0 0 0 0
0 0 0 0 0 0 0 0 0 0 0 0 0 0 0 0 0 0 0 0 0 0 0 0 0 0 0 0 0 0 0 0 0 0 0 0 0 0 0 0 0 0 0 0 0 0 0 0 0
0 0 0 0 0 0 0 0 0 0 0 0 0 0 0 0 0 0 0 0 0 0 0 0 0 0 0 0 0 0 0 0 0 0 0 0 0 0 0 0 0 0 0 0 0 0 0 0 0
Wind_Speed
12 8 2 4 7 6 1 3 1 1 1 1 1 4 5 4 3 3 1 2 2 2 2 2 3 4 5 7 8 8 8 8 8 9 9 9 10 10 10 10 10 11 12 12 13 13 13 14 14
5 4 5 6 6 2 3 2 1 1 1 1 3 4 5 3 3 4 1 2 2 3 2 2 3 4 6 7 7 8 8 8 8 8 9 9 9 9 9 9 10 11 11 11 12 12 12 12 13
5 2 5 5 4 5 4 2 2 1 2 2 3 4 3 2 2 1 1 1 3 3 3 2 4 4 5 6 7 7 7 7 7 7 7 8 9 9 9 9 9 10 10 11 11 11 11 12 12
3 5 6 5 3 3 3 2 1 0 3 4 3 4 3 2 1 1 1 3 5 3 3 3 4 4 5 6 6 6 7 7 7 7 7 7 8 8 8 8 8 9 9 10 10 11 11 11 11
4 5 5 1 3 2 2 2 1 2 1 3 3 3 1 3 3 3 3 4 5 4 3 3 5 5 5 5 5 6 6 6 6 7 6 7 7 7 8 7 8 8 9 9 10 10 10 10 10
5 5 4 3 4 2 1 2 1 2 1 2 3 3 1 2 4 3 3 4 4 4 3 3 5 5 5 5 5 5 5 5 5 5 6 6 6 6 7 7 7 8 9 9 9 9 10 10 10
5 4 4 4 3 2 1 2 1 0 1 1 1 3 1 2 2 3 4 4 4 4 4 3 3 4 5 5 5 5 5 5 5 4 5 5 5 6 6 6 7 7 8 8 8 9 9 10 10
4 5 2 2 3 3 1 0 0 0 1 1 1 4 3 3 1 3 5 5 5 5 4 4 3 3 3 3 5 5 5 5 5 5 4 4 4 4 4 5 6 6 7 7 8 9 9 9 9
4 5 2 3 4 3 1 1 2 1 1 1 1 1 2 1 2 5 5 4 5 5 5 4 4 3 3 2 4 4 4 5 4 4 4 3 2 2 2 3 4 5 6 7 7 8 8 7 8
5 3 4 2 2 2 1 1 1 2 1 1 1 2 2 3 3 4 4 3 3 3 4 3 4 3 2 2 2 1 1 2 2 2 2 1 1 1 2 3 4 4 5 5 6 6 6 5 3
3 4 2 1 0 0 1 2 2 1 3 4 4 2 2 3 3 2 2 1 1 0 2 3 3 3 2 1 1 1 1 1 2 2 2 1 1 1 1 1 2 2 3 2 3 3 2 3 3
2 0 1 1 1 1 2 2 2 3 6 4 4 5 4 3 2 2 1 0 0 1 1 2 3 2 3 2 1 0 0 1 1 1 1 1 1 1 1 1 1 1 1 2 2 2 2 3 3
1 2 1 1 1 1 2 3 3 5 5 2 1 3 4 4 3 3 2 2 0 1 0 1 2 2 2 2 1 1 0 0 1 1 1 1 1 1 1 1 1 2 2 2 2 2 3 3 3
1 0 2 3 3 3 3 5 3 7 3 2 2 3 3 3 3 2 1 1 1 1 1 0 1 1 1 2 2 1 0 1 1 1 1 1 1 1 1 1 1 1 2 2 3 3 3 3 3
1 1 4 3 3 2 1 5 6 7 3 3 3 3 3 3 2 2 2 2 2 1 1 0 1 1 1 1 2 1 1 1 1 1 1 1 1 1 1 2 2 2 2 2 2 3 3 3 3
2 2 3 3 1 2 2 8 6 3 3 4 4 4 3 3 2 3 2 2 2 2 1 1 1 2 2 1 2 2 1 1 1 1 1 2 1 1 1 2 2 2 2 2 3 3 4 3 3
1 2 4 5 2 1 3 8 7 3 4 5 5 4 4 2 2 3 2 2 2 3 2 1 0 1 2 1 1 2 1 1 1 1 1 1 2 2 2 2 2 3 2 3 3 2 4 4 4
3 3 5 5 3 2 5 9 9 5 4 6 6 5 4 4 5 3 2 2 2 3 2 1 1 1 2 1 1 1 1 1 1 1 1 2 2 2 2 2 2 3 3 3 3 3 3 4 4
3 3 6 7 4 4 7 10 11 7 5 7 6 5 5 5 4 2 2 2 2 2 2 2 1 1 1 1 1 1 2 2 1 1 2 2 2 2 3 2 2 2 3 3 4 4 4 4 4
2 4 6 7 5 4 7 11 9 6 6 6 5 5 5 4 2 2 2 2 3 3 3 2 2 1 1 1 1 1 2 2 2 1 1 2 2 2 3 3 3 3 3 3 4 4 3 3 4
3 4 5 6 7 5 4 8 5 3 2 1 1 2 3 3 4 3 3 3 3 3 3 3 2 2 2 1 0 1 1 1 1 2 2 2 2 2 2 3 3 3 4 4 4 5 4 4 3
4 3 4 4 3 5 1 6 6 3 2 2 2 2 1 1 2 2 2 1 2 3 3 3 3 3 2 2 1 1 2 2 2 2 2 3 3 2 2 3 3 3 4 4 5 4 3 5 5
3 3 3 3 2 4 3 3 8 1 2 4 3 3 1 1 1 2 1 1 2 1 2 2 3 3 3 2 2 2 2 2 2 2 2 2 3 2 2 3 3 3 3 4 5 4 4 4 5
2 2 2 1 2 4 4 4 7 2 4 3 3 3 2 2 0 0 0 0 1 2 2 2 3 3 3 2 2 2 3 2 2 2 2 2 2 2 2 3 3 4 3 4 5 5 5 5 4
3 4 4 5 2 6 2 3 7 4 3 2 3 3 2 2 1 1 2 2 2 3 3 2 3 4 3 3 3 3 3 3 3 3 3 2 2 2 3 3 3 4 4 4 4 4 5 5 6
1 4 4 4 5 6 2 5 6 2 3 3 2 2 2 3 3 3 2 2 3 3 3 3 3 3 3 3 3 3 4 3 3 3 3 3 3 3 4 4 4 4 4 4 4 3 5 5 5
2 2 3 3 1 4 5 5 6 2 4 5 4 4 4 4 4 4 3 3 3 3 3 4 4 3 3 3 4 4 4 3 3 4 3 3 3 3 4 4 4 4 4 5 5 4 5 5 5
1 3 3 2 2 5 6 5 4 4 4 4 4 5 5 5 5 5 4 3 3 3 4 4 4 4 3 4 4 4 4 4 4 3 4 4 4 4 4 4 4 4 4 5 5 5 5 6 5
1 1 2 2 3 3 4 7 4 3 3 3 4 4 4 5 5 5 6 5 3 4 3 4 4 4 3 4 4 4 4 4 4 4 4 4 4 4 5 4 4 5 5 5 5 6 6 7 6
3 4 4 3 4 3 3 8 3 1 1 2 4 5 5 5 5 5 6 6 4 4 4 4 4 4 4 4 4 4 4 4 4 4 4 4 4 4 5 5 5 5 5 6 6 7 7 7 8
Wind_Direction
332 329 26 55 58 56 212 258 234 16 16 330 76 95 106 102 118 147 233 90 80 106 115 107 79 83 90 96 104 105 104 104 104 104 103 101 99 95 94 92 95 97 98 98 95 93 93 93 91
329 340 48 59 90 124 254 258 222 241 217 66 51 73 76 69 50 87 35 351 96 108 106 108 78 84 88 94 104 112 110 108 107 106 105 106 104 100 96 94 97 98 97 98 97 96 96 95 93
332 38 75 76 118 178 202 224 200 247 11 54 49 45 78 76 38 61 290 79 97 92 82 80 74 88 86 89 92 109 115 111 109 108 107 108 107 104 100 98 97 100 98 99 99 99 98 96 94
41 46 56 78 184 219 195 223 231 56 21 31 80 57 48 28 354 310 7 85 94 85 78 78 67 85 85 87 90 98 111 116 114 111 111 111 110 107 104 102 100 102 103 103 102 100 100 97 94
58 74 73 80 229 239 252 288 25 44 22 16 81 99 53 348 3 38 63 76 89 78 68 83 63 67 83 85 87 91 98 107 117 120 118 118 117 113 109 106 107 109 111 109 109 105 102 99 97
56 70 101 199 227 239 291 337 36 25 347 3 65 115 172 346 25 31 57 68 81 84 67 72 62 57 65 80 85 87 86 94 104 114 120 119 117 116 116 113 114 116 118 114 113 112 107 102 99
98 102 152 182 207 243 272 333 57 33 351 298 117 126 207 322 4 42 47 62 63 70 68 59 68 63 59 60 74 72 76 77 82 95 96 105 115 116 122 123 123 120 122 120 119 117 112 104 99
114 106 127 184 191 234 279 351 66 85 255 316 90 141 213 262 358 51 45 49 51 45 43 42 45 60 61 63 61 62 65 64 63 61 67 77 95 111 118 125 127 125 125 124 122 122 116 108 101
79 84 182 203 186 219 310 27 341 355 97 15 35 178 207 158 70 63 45 35 35 36 30 27 27 38 50 55 55 54 66 59 56 59 57 70 84 99 119 127 126 128 129 128 127 124 116 107 98
78 141 210 222 169 175 310 339 311 359 337 297 345 3 75 98 89 78 62 51 41 21 21 20 27 25 30 41 59 52 81 84 69 68 59 60 73 82 97 120 128 131 128 127 125 118 113 104 97
99 170 191 311 36 68 307 309 302 184 250 223 205 202 139 107 98 101 98 114 131 59 31 18 10 22 18 19 37 28 62 91 81 72 50 60 71 87 89 115 122 134 128 122 120 117 107 106 104
102 274 205 272 331 313 262 271 298 233 234 225 194 166 156 151 162 172 195 174 72 85 20 16 10 10 13 7 0 1 54 109 106 99 80 87 95 101 144 147 160 157 145 140 132 131 120 116 111
181 248 306 304 351 292 282 264 260 258 250 249 195 159 170 180 196 195 194 183 131 225 294 351 15 4 11 6 331 1 325 200 158 144 126 105 127 152 165 173 169 167 158 157 146 140 134 127 120
193 246 286 287 288 288 273 277 258 256 232 222 209 203 195 200 199 193 183 246 246 265 248 287 11 5 7 10 337 301 283 277 186 165 167 142 142 165 171 170 172 165 166 163 154 153 144 136 130
44 343 317 281 257 247 303 292 245 244 210 218 234 221 215 214 193 197 202 216 233 256 235 286 299 1 350 354 333 317 295 274 243 197 178 157 156 166 184 175 176 173 166 154 147 142 135 131 129
31 12 293 279 244 225 172 263 265 235 193 229 244 241 230 233 219 213 209 211 225 237 205 255 322 350 329 324 324 315 299 264 268 233 193 182 186 191 185 188 185 180 167 156 157 153 142 143 141
28 267 261 284 258 235 199 253 271 254 209 235 243 242 230 233 247 230 221 206 224 214 186 197 321 339 311 306 316 306 291 272 270 266 220 209 199 197 195 199 192 172 164 168 168 164 156 154 148
234 246 264 265 274 264 249 259 273 265 230 240 244 242 227 221 236 235 222 216 234 203 181 183 239 315 311 304 344 332 321 297 270 252 247 234 216 201 193 199 198 176 165 172 170 169 164 159 154
219 233 263 269 283 279 261 269 273 270 249 247 251 244 229 232 238 230 208 222 210 184 185 195 224 291 309 302 334 307 288 291 283 259 252 231 227 215 199 207 199 184 178 181 176 170 166 165 145
254 252 267 287 301 287 277 274 268 256 240 234 236 235 222 233 249 241 227 228 195 193 203 214 214 258 269 248 246 262 261 250 265 276 293 258 228 227 210 198 200 191 178 179 180 172 172 175 169
265 233 253 274 308 305 300 293 267 246 237 257 262 247 223 218 230 241 249 220 199 201 208 229 233 245 250 250 220 312 287 294 319 307 296 297 261 224 224 207 205 196 186 190 194 185 177 178 187
253 249 265 280 308 294 335 292 283 268 306 302 311 319 292 280 231 237 232 228 226 222 219 220 229 245 238 219 191 225 244 251 265 274 276 292 288 239 225 219 213 208 195 191 200 197 189 178 185
242 288 284 268 248 287 272 235 282 307 290 289 296 298 299 296 207 193 205 241 275 282 255 235 236 247 235 223 205 218 259 264 269 282 279 284 294 269 235 221 213 215 208 197 198 195 193 187 190
275 349 354 24 75 270 227 194 278 263 257 280 297 305 305 330 330 265 282 316 318 320 301 277 264 259 242 233 221 217 246 254 264 277 266 272 286 288 267 237 219 214 216 205 204 199 198 193 191
43 64 13 349 339 255 206 208 252 273 295 272 275 291 301 315 306 321 331 328 315 311 299 276 275 267 246 236 233 225 236 230 226 237 241 254 266 281 271 258 234 221 216 212 206 199 199 193 191
210 142 164 226 251 283 292 236 249 295 322 345 343 311 329 329 335 313 293 298 295 290 290 287 278 272 265 247 247 239 237 228 232 238 239 239 246 254 257 257 239 233 219 211 201 203 202 194 194
148 192 180 157 269 278 273 287 297 333 352 360 351 347 332 323 320 312 300 301 293 290 290 282 285 276 273 268 253 249 238 234 241 247 244 239 247 252 252 250 243 230 220 210 201 203 198 191 198
158 157 109 139 210 267 285 268 260 300 312 326 325 324 322 326 325 326 318 302 295 293 297 292 283 267 265 264 263 259 240 240 240 243 249 247 248 248 245 244 242 228 222 211 203 203 199 193 198
145 139 150 174 193 205 272 272 229 228 250 284 299 312 314 315 318 323 320 308 300 309 311 311 298 285 279 272 269 267 254 247 244 243 245 242 247 246 244 242 242 232 224 214 205 202 197 198 200
180 184 161 185 245 214 232 268 269 244 270 298 307 314 316 320 326 326 324 325 319 318 316 312 306 282 273 267 266 265 264 253 247 248 247 241 242 241 241 240 239 237 228 217 208 204 206 203 201